[[{"header":{"parameterUnit":"m.s-1","parameterCategory":1,"la1":30.2991,"la2":30.254,"lo1":-89.0895,"lo2":-89.0444,"dy":0.0017,"dx":0.0017,"nx":28,"ny":28,"refTime":"2024-06-29T03:00:00:Z","depth":0,"parameterNumber":2,"parameterNumberName":"U-component_of_WINDS"},"data":[0,0,0,0,0,0,0,0,0,0,0,0,0,0,0,0,0,0,0,0,0,0,0,0,0,0,0,0,0,0,0,0,0,0,0,0,0,0,0,0,0,0,0,0,0,0,0,0,0,0,0,0,0,0,0,0,0,0,2.0962,2.0963,0,2.1011,2.1012,2.1013,2.0987,2.0985,2.0984,2.0983,2.1036,2.1038,2.1041,0,0,0,0,0,0,0,0,0,0,0,0,0,2.0845,2.0847,2.0962,2.0963,2.0963,2.1011,2.1012,2.1013,2.0987,2.0985,2.0984,2.0982,2.1035,2.1038,2.1041,0,0,0,0,0,0,0,0,0,0,0,0,0,2.0895,2.0848,2.0962,2.0956,2.0956,2.1011,2.1012,2.1013,2.0987,2.0985,2.0983,2.0981,2.1034,2.1038,2.1041,2.1106,0,0,2.1054,2.1055,0,0,0,0,0,0,0,0,2.0893,2.09,2.0956,2.0957,2.0957,2.0991,2.099,2.1044,2.0988,2.0976,2.0983,2.098,2.1022,2.1027,2.1041,2.1108,2.1111,2.1054,2.1056,2.1058,2.1059,0,0,0,0,0,0,0,2.0889,2.0898,2.0982,2.0957,2.0957,2.0951,2.0956,2.1,2.101,2.0976,2.0975,2.0981,2.1022,2.1037,2.1042,2.1111,2.1054,2.1057,2.106,2.1061,2.123,2.1232,0,0,0,0,0,0,2.0886,2.0895,2.098,2.0983,2.0919,2.0955,2.096,2.0982,2.1009,2.1011,2.0982,2.0979,2.1031,2.1037,2.1044,2.1118,2.1058,2.1062,2.1064,2.1228,2.123,2.1233,0,0,0,0,0,0,2.0884,2.0894,2.0978,2.0938,2.0949,2.0959,2.0983,2.0984,2.0999,2.1014,2.1015,2.0996,2.103,2.1038,2.1089,2.1119,2.1063,2.1067,2.1225,2.1229,2.1231,2.1268,0,0,0,0,0,0,2.088,2.0893,2.0918,2.0939,2.0951,2.1023,2.0985,2.0986,2.1005,2.1002,2.1027,2.1029,2.1029,2.1084,2.1093,2.1124,2.107,2.1223,2.1227,2.123,2.1265,2.1272,2.1279,0,0,0,0,0,2.0876,2.0928,2.0919,2.093,2.0982,2.1025,2.1032,2.103,2.1008,2.1033,2.1041,2.1028,2.1115,2.1089,2.11,2.1132,2.1221,2.1226,2.123,2.1261,2.1271,2.1279,0,0,0,0,0,0,2.0912,2.0931,2.0921,2.0981,2.1002,2.1021,2.1052,2.1041,2.1069,2.1064,2.1062,2.1068,2.112,2.1132,2.1103,2.1194,2.1164,2.1171,2.1184,2.1194,2.1201,2.1196,2.1074,0,0,0,0,0,2.0926,2.0959,2.0974,2.1026,2.1036,2.1042,2.1061,2.1058,2.1079,2.1087,2.11,2.1122,2.1153,2.1174,2.1205,2.1266,2.127,2.1294,2.1301,2.1307,2.1312,2.1342,2.1352,2.1248,2.1248,2.1248,0,0,2.0957,2.0971,2.0993,2.1033,2.1048,2.1081,2.105,2.1088,2.1112,2.1094,2.1141,2.1152,2.1175,2.1231,2.1256,2.1242,2.1342,2.1313,2.1317,2.132,2.1348,2.1358,2.1367,2.1251,2.1251,2.125,0,0,2.1029,2.1045,2.1087,2.1102,2.1125,2.1128,2.1138,2.1159,2.1164,2.1212,2.1198,2.1227,2.1283,2.1299,2.1314,2.1389,2.1377,2.14,2.1437,2.1467,2.1475,2.1482,2.1506,2.1515,2.1406,2.1406,2.1406,0,2.1065,2.1114,2.1111,2.1148,2.1165,2.1149,2.1191,2.1206,2.1238,2.125,2.1233,2.13,2.1315,2.1373,2.139,2.1405,2.1415,2.1396,2.1474,2.1481,2.1488,2.1511,2.152,2.1408,2.1408,2.1408,2.1407,0,2.1155,2.119,2.1222,2.125,2.1271,2.1311,2.1313,2.1334,2.1329,2.1333,2.1381,2.1398,2.143,2.1444,2.144,2.15,2.149,2.1474,2.1444,2.15,2.1521,2.153,2.1411,2.1411,2.141,2.1409,0,0,2.1252,2.1276,2.1288,2.1299,2.1321,2.1348,2.1386,2.1416,2.1433,2.1455,2.1486,2.1532,2.1516,2.1533,2.1531,2.1557,2.1611,2.1537,2.1538,2.1548,2.1675,2.1685,2.1696,2.1604,2.1605,2.1607,2.1672,0,2.1324,2.139,2.1386,2.1448,2.1478,2.1461,2.1494,2.1511,2.1516,2.1542,2.1548,2.1579,2.1557,2.1567,2.1592,2.1599,2.1636,2.1595,2.1631,2.1632,2.1623,2.1707,2.1719,2.178,2.1681,2.1682,2.1683,0,2.1417,2.1439,2.1503,2.1517,2.153,2.156,2.1584,2.161,2.1628,2.163,2.1648,2.164,2.1678,2.1648,2.1698,2.167,2.1684,2.169,2.1692,2.1694,2.166,2.1709,2.18,2.1808,2.1697,2.1696,2.1695,0,2.1477,2.1524,2.1567,2.1578,2.1597,2.1617,2.1626,2.1642,2.1659,2.1681,2.1691,2.1719,2.1733,2.1754,2.1753,2.1731,2.1803,2.1774,2.1804,2.1804,2.1819,2.1818,2.1911,2.1832,2.1832,2.1832,2.1832,0,2.1556,2.1595,2.1594,2.162,2.1662,2.1658,2.17,2.1707,2.1721,2.1747,2.1736,2.1761,2.176,2.1785,2.1785,2.1825,2.1833,2.1834,2.1833,2.1834,2.1833,2.1842,2.1837,2.1834,2.1834,2.1833,2.1833,0,2.1631,2.1632,2.1677,2.169,2.1694,2.1724,2.1735,2.176,2.1763,2.1797,2.1804,2.181,2.1839,2.184,2.1875,2.1874,2.1922,2.1918,2.1915,2.1914,2.1943,2.1939,2.2043,2.2056,2.1971,2.1972,2.1973,0,2.168,2.1709,2.1724,2.174,2.175,2.1777,2.1793,2.1789,2.1807,2.1828,2.1849,2.1877,2.1898,2.1946,2.1952,2.1978,2.1972,2.2007,2.1976,2.1975,2.197,2.1967,2.1969,2.2013,2.2014,2.2014,2.2015,0,2.1767,2.1764,2.1788,2.1811,2.183,2.1848,2.1865,2.1879,2.1877,2.1897,2.1925,2.1942,2.1975,2.2002,2.2026,2.2035,2.2024,2.2025,2.2032,2.2032,2.2029,2.2028,2.1929,2.2022,2.2021,2.2021,2.202,2.202,2.1828,2.1852,2.1865,2.189,2.1902,2.1917,2.194,2.1944,2.1968,2.1993,2.199,2.2021,2.2036,2.2067,2.2078,2.2102,2.209,2.2102,2.2105,2.2107,2.2109,2.2026,2.2106,2.2106,2.2106,2.2106,2.2106,0,2.1911,2.1918,2.1942,2.1964,2.1984,2.1971,2.1988,2.2005,2.2032,2.2046,2.2067,2.2098,2.2124,2.2131,2.2155,2.2173,2.2168,2.2179,2.2177,2.2178,2.2119,2.2109,2.2182,2.2182,2.2182,2.2182,2.2182,2.2182,2.1957,2.1995,2.1994,2.2037,2.2044,2.2073,2.2083,2.2097,2.2108,2.2143,2.2163,2.2167,2.2178,2.2203,2.2225,2.2226,2.2235,2.2247,2.2247,2.2191,2.2183,2.2176,2.2166,2.225,2.225,2.2303,2.2304,2.2304]},{"header":{"parameterUnit":"m.s-1","parameterCategory":1,"la1":30.2991,"la2":30.254,"lo1":-89.0895,"lo2":-89.0444,"dy":0.0017,"dx":0.0017,"nx":28,"ny":28,"refTime":"2024-06-29T03:00:00:Z","depth":0,"parameterNumber":3,"parameterNumberName":"V-component_of_WINDS"},"data":[0,0,0,0,0,0,0,0,0,0,0,0,0,0,0,0,0,0,0,0,0,0,0,0,0,0,0,0,0,0,0,0,0,0,0,0,0,0,0,0,0,0,0,0,0,0,0,0,0,0,0,0,0,0,0,0,0,0,4.2803,4.2804,0,4.2893,4.2894,4.2895,4.2888,4.2887,4.2886,4.2884,4.2968,4.2971,4.2975,0,0,0,0,0,0,0,0,0,0,0,0,0,4.2616,4.262,4.2803,4.2804,4.2806,4.2893,4.2895,4.2896,4.2889,4.2887,4.2885,4.2884,4.2967,4.2971,4.2975,0,0,0,0,0,0,0,0,0,0,0,0,0,4.2701,4.2621,4.2803,4.2813,4.2815,4.2893,4.2895,4.2896,4.2889,4.2887,4.2885,4.2883,4.2965,4.297,4.2976,4.3048,0,0,4.2991,4.2994,0,0,0,0,0,0,0,0,4.2696,4.2707,4.281,4.2812,4.2814,4.2878,4.2859,4.2947,4.2889,4.286,4.2884,4.2882,4.2939,4.2946,4.2967,4.3051,4.3055,4.2992,4.2995,4.2997,4.2999,0,0,0,0,0,0,0,4.269,4.2704,4.2839,4.2812,4.2814,4.281,4.282,4.2876,4.2909,4.2863,4.2862,4.2874,4.294,4.2962,4.2969,4.3056,4.2992,4.2996,4.3,4.3002,4.3203,4.3205,0,0,0,0,0,0,4.2683,4.2699,4.2836,4.2841,4.2749,4.2815,4.2826,4.2859,4.2909,4.2915,4.2875,4.2873,4.2954,4.2963,4.2972,4.3059,4.2997,4.3002,4.3005,4.32,4.3203,4.3206,0,0,0,0,0,0,4.2679,4.2696,4.2832,4.277,4.2787,4.282,4.2858,4.2862,4.2885,4.2919,4.2924,4.2893,4.2953,4.2965,4.3029,4.3061,4.3004,4.3009,4.3198,4.3201,4.3204,4.3233,0,0,0,0,0,0,4.2674,4.2694,4.2724,4.2771,4.2791,4.289,4.286,4.2865,4.2895,4.2893,4.2936,4.2941,4.2952,4.3021,4.3034,4.3067,4.3013,4.3195,4.3199,4.3203,4.3229,4.3237,4.3243,0,0,0,0,0,4.2667,4.2727,4.2725,4.2742,4.2829,4.2892,4.2903,4.2917,4.2898,4.2926,4.2948,4.294,4.3056,4.3028,4.3043,4.3078,4.3193,4.3198,4.3203,4.3226,4.3235,4.3243,0,0,0,0,0,0,4.2679,4.2733,4.2732,4.2809,4.2847,4.2891,4.2928,4.2927,4.2968,4.2964,4.2977,4.2987,4.3051,4.3071,4.3039,4.3149,4.3122,4.313,4.3134,4.3143,4.315,4.3143,4.3018,0,0,0,0,0,4.2691,4.2741,4.2784,4.2848,4.2867,4.2894,4.2922,4.293,4.2968,4.2983,4.301,4.3044,4.3089,4.3117,4.316,4.3233,4.3241,4.3264,4.3271,4.3276,4.3283,4.3321,4.3331,4.3222,4.3222,4.3222,0,0,4.2715,4.2751,4.2781,4.2851,4.2881,4.293,4.2907,4.296,4.2995,4.299,4.3053,4.3074,4.3113,4.3182,4.3214,4.32,4.3315,4.3283,4.3287,4.329,4.3327,4.3338,4.3347,4.3225,4.3225,4.3224,0,0,4.2784,4.2818,4.2874,4.2905,4.2952,4.297,4.2983,4.3029,4.3043,4.3107,4.3104,4.3145,4.3222,4.325,4.3274,4.3355,4.3348,4.3368,4.3404,4.3441,4.345,4.3457,4.3485,4.3494,4.3374,4.3374,4.3374,0,4.2807,4.2884,4.2902,4.2956,4.2985,4.2987,4.3042,4.307,4.3127,4.3146,4.3132,4.3228,4.3255,4.3329,4.3349,4.3369,4.3383,4.3362,4.3448,4.3456,4.3463,4.3489,4.3499,4.3376,4.3376,4.3376,4.3376,0,4.2909,4.2962,4.3002,4.306,4.3094,4.3148,4.3172,4.3204,4.3209,4.3228,4.3292,4.3325,4.3373,4.3392,4.3396,4.3467,4.3458,4.3445,4.3417,4.3475,4.3499,4.351,4.3379,4.3378,4.3378,4.3377,0,0,4.2986,4.3056,4.307,4.3096,4.3149,4.3188,4.3241,4.3292,4.3319,4.3358,4.3401,4.3466,4.3456,4.3483,4.3491,4.3524,4.3584,4.3507,4.3508,4.3519,4.3662,4.367,4.3681,4.3581,4.3583,4.3584,4.3658,0,4.3059,4.3157,4.3175,4.3259,4.3307,4.3309,4.3355,4.3391,4.341,4.3451,4.347,4.3516,4.3499,4.3516,4.3549,4.357,4.3612,4.3565,4.3618,4.362,4.3607,4.3694,4.3702,4.377,4.3668,4.3669,4.3671,0,4.3157,4.3203,4.3292,4.3338,4.3359,4.3401,4.3448,4.3489,4.3528,4.3539,4.3571,4.3575,4.3627,4.3599,4.367,4.3637,4.366,4.3674,4.3677,4.368,4.3647,4.3698,4.3792,4.3802,4.3686,4.3685,4.3684,0,4.3202,4.3286,4.335,4.3373,4.3428,4.3457,4.3481,4.3519,4.3549,4.3589,4.3608,4.3654,4.3678,4.3712,4.3727,4.3705,4.3797,4.3769,4.3805,4.3804,4.3822,4.3821,4.3919,4.384,4.384,4.384,4.384,0,4.3281,4.3335,4.3371,4.341,4.3471,4.349,4.3548,4.3571,4.3605,4.3646,4.365,4.3688,4.3707,4.3747,4.3759,4.3816,4.3827,4.3835,4.3837,4.3834,4.3833,4.3848,4.3843,4.3843,4.3842,4.3842,4.3841,0,4.334,4.3367,4.3437,4.3486,4.3499,4.3541,4.358,4.3617,4.3637,4.3689,4.3702,4.3732,4.378,4.3799,4.3857,4.3865,4.3929,4.3928,4.3916,4.3916,4.395,4.3946,4.4061,4.4076,4.3988,4.3989,4.399,0,4.3388,4.343,4.3484,4.3514,4.354,4.3587,4.3618,4.3638,4.367,4.3719,4.3749,4.3798,4.3837,4.3913,4.3938,4.3982,4.3981,4.4018,4.3987,4.3982,4.3979,4.3976,4.3979,4.4023,4.4024,4.4024,4.4025,0,4.3468,4.348,4.3526,4.3577,4.3615,4.3655,4.3694,4.3718,4.3743,4.3778,4.3829,4.386,4.3921,4.3968,4.4013,4.4035,4.4033,4.4035,4.4045,4.4041,4.4032,4.4036,4.393,4.4032,4.4031,4.403,4.403,4.403,4.3522,4.356,4.3604,4.3655,4.3687,4.3724,4.3761,4.3787,4.383,4.3883,4.3892,4.3945,4.3983,4.4045,4.4068,4.4108,4.4098,4.4113,4.4117,4.412,4.4121,4.4028,4.4117,4.4116,4.4116,4.4116,4.4116,0,4.3601,4.3631,4.3678,4.3734,4.3774,4.3773,4.3816,4.3848,4.3897,4.3934,4.3974,4.4031,4.4078,4.4107,4.4153,4.4179,4.418,4.419,4.4187,4.4192,4.4128,4.4114,4.4189,4.4189,4.4189,4.4189,4.4189,4.4189,4.3647,4.3711,4.3728,4.3806,4.3834,4.3889,4.3914,4.3947,4.3976,4.4042,4.4081,4.4102,4.4135,4.4183,4.4225,4.4232,4.4247,4.4259,4.4265,4.4204,4.4197,4.4189,4.4176,4.4263,4.4263,4.4325,4.4325,4.4326]}]]